Home   Weather   Makati   Past weeks

Flag for Philippines Past Weather in Makati, Philippines — Yesterday and Last 2 Weeks

Now
86 °F

More clouds than sun.


Feels Like: 105 °F
Forecast: 80 / 87 °F
Wind: 2 mph from North

Location: National Airport

Current Time: Sep 25, 2016 at 11:48:29 AM

Latest Report: Sep 25, 2016 at 11:00 AM


Visibility: 5 mi

Pressure: 29.71 "Hg

Humidity: 89%

Dew Point: 82 °F

Location of MakatiLocation

Past Weather in Makati — Graph

°F

Makati Temperature Yesterday

Maximum temperature yesterday: 88 °F (at 12:00 PM)
Minimum temperature yesterday: 79 °F (at 3:00 AM)
Average temperature yesterday: 82 °F

High & Low Weather Summary for the Past Weeks

 TemperatureHumidityPressure
High95 °F (Sep 10, 2:00 PM)100% (Sep 10, 11:00 PM)29.89 "Hg (Sep 10, 11:00 PM)
Low77 °F (Sep 19, 10:00 PM)19% (Sep 21, 7:00 PM)29.62 "Hg (Sep 16, 3:00 PM)
Average83 °F89%29.76 "Hg
* Reported Sep 10 11:00 AM — Sep 25 11:00 AM, Makati, Weather by CustomWeather, © 2016

Note: Actual official high and low records may vary slightly from our data, if they occured in-between our weather recording intervals... More about our weather records

Advertising

Makati Weather History for the Previous 24 Hours

Scroll right to see more
 ConditionsComfort  
Time TempWeatherWind HumidityBarometerVisibility
11:00 AM
Sun, Sep 25
86 °FMore clouds than sun.2 mph89%29.71 "Hg5 mi
10:00 AM86 °FCloudy.5 mph89%29.71 "Hg6 mi
9:00 AM86 °FCloudy.3 mph89%29.71 "Hg6 mi
8:00 AM86 °FOvercast.3 mph89%29.71 "Hg6 mi
7:00 AM82 °FOvercast.No wind100%29.71 "Hg6 mi
6:00 AM79 °FScattered clouds.No wind100%29.68 "Hg6 mi
5:00 AM81 °FPassing clouds.No wind100%29.68 "HgN/A
4:00 AM81 °FPartly cloudy.No wind100%29.65 "HgN/A
3:00 AM81 °FPartly cloudy.No wind100%29.65 "Hg5 mi
2:00 AM82 °FMostly cloudy.No wind100%29.68 "Hg4 mi
1:00 AM82 °FPartly cloudy.No wind100%29.68 "Hg5 mi
12:00 AM81 °FPassing clouds.No wind100%29.71 "Hg5 mi
11:00 PM
Sat, Sep 24
82 °FPassing clouds.No wind100%29.71 "Hg5 mi
10:00 PM82 °FPassing clouds.No wind100%29.71 "HgN/A
9:00 PM82 °FPassing clouds.2 mph100%29.74 "HgN/A
8:00 PM82 °FPassing clouds.No wind100%29.71 "HgN/A
7:00 PM82 °FPartly cloudy.2 mph94%29.71 "Hg6 mi
6:00 PM82 °FPassing clouds.2 mph89%29.68 "Hg6 mi
5:00 PM82 °FPartly sunny.5 mph89%29.65 "Hg6 mi
4:00 PM82 °FBroken clouds.3 mph100%29.65 "Hg6 mi
3:00 PM82 °FLight rain. More clouds than sun.7 mph94%29.68 "Hg5 mi
2:00 PM86 °FSprinkles. Broken clouds.7 mph84%29.68 "HgN/A
1:00 PM88 °FPassing clouds.10 mph79%29.68 "HgN/A
12:00 PM88 °FPassing clouds.9 mph79%29.74 "HgN/A
Weather by CustomWeather, © 2016

See weather overviewHow to use our weather pages